{"data":{"norad_id":64949,"epoch":"2026-09-20T13:12:47.335104Z","epoch_age_seconds":119737,"freshness":"FRESH","line1":"1 64949U 25158T   26263.55054786  .00014639  00000+0  45449-3 0  9993","line2":"2 64949  97.2875 121.8532 0001972 101.7404 258.4060 15.33470895 64718","mean_motion":15.33470895,"eccentricity":0.0001972,"inclination_deg":97.2875,"raan_deg":121.8532,"arg_perigee_deg":101.7404,"mean_anomaly_deg":258.406,"bstar":0.00045449,"rev_number":6471,"period_min":93.904618907032,"perigee_km":464.11657172372,"apogee_km":466.81568879829,"semimajor_km":6843.603130261,"source":"CELESTRAK","updated_at":"2026-09-21T09:00:35.489802Z"}}